STARLINK-2682 (48440 NORAD) Tracking and Keplerian Element Data

This shows tracking and keplerian element data for the satellite.

Feedback or suggestion? Click here.




ElementValue
Catalog48440
NameSTARLINK-2682
Epoch Orbit365
Epoch Day214.91667824
Epoch Year2021
RAAN162.7785
Inclination53.0434
Eccentricity0.0001479
Argument of Perigee72.0068
Mean Anonmoly126.7499
Mean Motion15.20245847
Decay Rate-0.00833517
L11 48440U 21040N 21214.91667824 -.00833517 00000-0 -41160-1 0 9992
L22 48440 53.0434 162.7785 0001479 72.0068 126.7499 15.20245847 3651

Live tracking and technical data element details for STARLINK-2682 (NORAD 48440). STARLINK-2682 can be tracked NOW for your location showing map with azimuth and elevation plus other details from your city location.

Track the satellite on the map from your city or location and see movement details for azimuth, elevation, latitude, longitude, range, height, and movement on the map or in text.







IsCatalogInMostPopularTable: catalog: 48440, numindb: 32
Update: records affected: 1



GetName: 48440 STARLINK-2682

Hit Count: updated at: Tue, 03 Aug 2021 23:16:58 GMT